Погода в Кашпире

Россия / Самарская область     53°00′10″N   48°34′04″E
темп.,
°C
ветер,
м/с
пор.,
м/с
влажн.,
%
обл.,
%
осадки,
мм/ч
давл.,
гПа
погр.,
м
16 апреля, пт
пт1601:00+13в1157100 0.0 101710
04:00+11всв1162100 0.0 101811
07:00+10св2267100 0.0 101830
10:00+15всв3553100 0.0 1018313
13:00+20всв4537100 0.0 1018815
16:00+22всв442853 0.0 10182613
19:00+19св374278 0.0 1018100
22:00+15св4106148 0.0 1019241
17 апреля, сб
сб1701:00+12ссв348056 0.0 102067
04:00+10ссв348743 0.0 102167
07:00+10ссв388960 0.0 1022242
10:00+14св56675 0.0 1022564
13:00+18св66495 0.0 10211103
16:00+20всв55418 0.0 10202328
19:00+17св585399 0.0 1020350
22:00+13св5116584 0.0 1020297
18 апреля, вс
вс1801:00+11св4967100 0.0 1020276
04:00+9св41067100 0.0 1020297
07:00+9всв3967100 0.1 1020410
10:00+12всв6853100 0.1 1020657
13:00+13в6752100 0.0 1019984
16:00+12всв4768100 0.3 1020489
19:00+11с3774100 0.6 1020277
22:00+10всв3968100 0.8 1021446
19 апреля, пн
пн1901:00+9всв41081100 0.4 1022606
04:00+7всв61184100 0.4 1022582
07:00+7св51081100 0.1 1023660
10:00+8св7863100 0.1 1024878
13:00+10всв7860100 0.0 10241340
16:00+7в71069100 0.0 1025908
19:00+5всв71186100 0.0 1026778
22:00+4в71191100 0.0 1027730
20 апреля, вт
вт2001:00+4в61186100 0.1 1027692
04:00+3в61191100 0.2 1028669
07:00+3в71274100 0.0 1028718
10:00+6вюв8115842 0.0 1028888
13:00+9вюв9115274 0.0 10271243
16:00+11юв9115092 0.0 10261445
19:00+9вюв81254100 0.0 10251171
22:00+8юв71552100 0.0 1026818